Regional Weather Roundup
Issued by NWS

Home | Current Version | Previous Version | Text Only | Print | Product List | Glossary On
Versions: 1 2 3 4 5 6 7 8 9 10 11 12 13 14 15 16 17 18 19 20 21 22 23 24 25 26 27 28 29 30 31 32 33 34 35 36 37 38 39 40 41 42 43 44 45 46 47 48 49 50
000
ASCA42 TJSJ 270610
RWRPR
PUERTO RICO/U.S. VIRGIN ISLANDS HOURLY WEATHER ROUNDUP
NATIONAL WEATHER SERVICE SAN JUAN PR
200 AM AST SAT MAY 27 2017

PRZ001>002-007>008-010-270700-
PUERTO RICO

CITY           SKY/WX    TMP DP  RH WIND       PRES   REMARKS
SAN JUAN LMM   LGT RAIN  79  73  83 E5        30.04F
PONCE          PTCLDY    75  72  88 CALM      30.06F
CEIBA          CLEAR     79  73  83 E6        30.06F
$$

VIZ001>002-270700-
U.S. VIRGIN ISLANDS

CITY           SKY/WX    TMP DP  RH WIND       PRES   REMARKS
CHARLOTTE AMA  CLEAR     81  75  83 E9        30.04F
CHRISTIANSTED  PTCLDY    79  73  83 NE7       30.04F
$$

HOURLY WEATHER ROUNDUP FOR THE NEWS MEDIA

CITY           SKY/WX    TMP DP  RH WIND       PRES   REMARKS
ORLANDO        CLEAR     71  62  73 CALM      30.06F
NEW YORK       PTCLDY    65  53  65 NW14      29.82S
NEWARK         CLEAR     63  53  70 SW7       29.82S
CHICAGO        CLOUDY    57  53  86 NE8       29.86R
HARTFORD       CLOUDY    53  52  96 CALM      29.76R
BOSTON         CLOUDY    54  51  90 NW7       29.76R
DALLAS         MOCLDY    81  73  76 S14       29.82R
PHILADELPHIA   PTCLDY    64  54  69 W6        29.87S
LOS ANGELES    PTCLDY    60  56  86 W10       30.02R
WASHINGTON DC  PTCLDY    56  54  93 E5        29.91F


USA.gov is the U.S. government's official web portal to all federal, state and local government web resources and services.